Weather History for KWMC - April, 2014

Change the Weather History Date:

Monday, April 7, 2014

  Actual Average Record
Temperature  
Mean Temperature 48 °F 44 °F  
Max Temperature 70 °F 60 °F 83 °F (1977)
Min Temperature 26 °F 29 °F 14 °F (1953)
Degree Days  
Heating Degree Days 17 20  
Month to date heating degree days 168 146  
Since 1 July heating degree days 5530 5474  
Cooling Degree Days 0 0  
Month to date cooling degree days 0 0  
Year to date cooling degree days 0 0  
Moisture  
Dew Point 29 °F    
Average Humidity 56    
Maximum Humidity 92    
Minimum Humidity 20    
Precipitation  
Precipitation 0.00 in 0.03 in 0.44 in (2011)
Month to date precipitation 0.11 0.19  
Year to date precipitation 2.83 2.55  
Snow  
Snow 0.00 in 0.10 in 4.50 in (2011)
Month to date snowfall 1.2 0.5  
Since 1 July snowfall 23.4 19.7  
Snow Depth 0.00 in    
Sea Level Pressure  
Sea Level Pressure 30.27 in    
Wind  
Wind Speed 5 mph (East)    
Max Wind Speed 13 mph    
Max Gust Speed 15 mph    
Visibility 10 miles    
Events      
T = Trace of Precipitation, MM = Missing Value Source: NWS Daily Summary

Daily Weather History Graph

Daily Weather History Graph

Search for Another Location

Airport or City:

Trip Planner

Search our weather history database for the weather conditions in past years. The results will help you decide how hot, cold, wet, or windy it might be!

Date:

Astronomy

Apr. 07, 2014 Rise Set
Actual Time 6:24 AM PDT 7:22 PM PDT
Civil Twilight 5:56 AM PDT 7:50 PM PDT
Nautical Twilight 5:23 AM PDT 8:23 PM PDT
Astronomical Twilight 4:48 AM PDT 8:58 PM PDT
Moon 12:23 PM PDT (4/7) 2:03 AM PDT (4/7)
Length of Visible Light 13h 53m
Length of Day
12h 57m
First Quarter, 54% of the Moon is Illuminated
Apr 7
First Quarter
Apr 15
Full
Apr 22
Last Quarter
Apr 28
New
May 6
First Quarter

Hourly Weather History & Observations

Time (PDT) Temp. Windchill Dew Point Humidity Pressure Visibility Wind Dir Wind Speed Gust Speed Precip Events Conditions
12:56 AM 33.1 °F 26.9 °F 28.9 °F 85% 30.30 in 10.0 mi SE 6.9 mph - N/A   Clear
1:56 AM 34.0 °F 26.6 °F 28.9 °F 82% 30.29 in 10.0 mi SE 9.2 mph - N/A   Clear
2:56 AM 30.9 °F - 28.0 °F 89% 30.30 in 10.0 mi Calm Calm - N/A   Clear
3:56 AM 28.9 °F 21.9 °F 26.1 °F 89% 30.30 in 10.0 mi ESE 6.9 mph - N/A   Clear
5:56 AM 27.0 °F - 25.0 °F 92% 30.33 in 10.0 mi Calm Calm - N/A   Clear
6:56 AM 28.0 °F 20.8 °F 27.0 °F 96% 30.34 in 10.0 mi ESE 6.9 mph - N/A   Clear
7:56 AM 39.9 °F 37.8 °F 32.0 °F 73% 30.33 in 10.0 mi ESE 3.5 mph - N/A   Clear
8:56 AM 46.9 °F - 33.1 °F 59% 30.34 in 10.0 mi Calm Calm - N/A   Clear
9:56 AM 54.0 °F - 30.9 °F 41% 30.33 in 10.0 mi NNE 6.9 mph - N/A   Clear
10:56 AM 57.9 °F - 30.0 °F 35% 30.32 in 10.0 mi Variable 4.6 mph - N/A   Clear
11:56 AM 62.1 °F - 30.0 °F 30% 30.31 in 10.0 mi ESE 5.8 mph - N/A   Clear
1:56 PM 66.0 °F - 27.0 °F 23% 30.26 in 10.0 mi North 4.6 mph - N/A   Clear
2:56 PM 66.9 °F - 28.0 °F 23% 30.25 in 10.0 mi Variable 5.8 mph - N/A   Clear
3:56 PM 68.0 °F - 26.1 °F 21% 30.22 in 10.0 mi Variable 3.5 mph - N/A   Clear
4:56 PM 70.0 °F - 27.0 °F 20% 30.21 in 10.0 mi North 4.6 mph - N/A   Clear
5:56 PM 69.1 °F - 28.9 °F 22% 30.21 in 10.0 mi NNE 6.9 mph - N/A   Clear
6:56 PM 64.9 °F - 30.9 °F 28% 30.20 in 10.0 mi North 6.9 mph - N/A   Clear
7:56 PM 57.9 °F - 33.1 °F 39% 30.19 in 10.0 mi NNE 6.9 mph - N/A   Clear
10:56 PM 43.0 °F 38.2 °F 33.1 °F 68% 30.21 in 10.0 mi SE 8.1 mph - N/A   Clear
11:56 PM 43.0 °F 40.3 °F 33.1 °F 68% 30.20 in 10.0 mi East 4.6 mph - N/A   Clear